Location: Torch Lake Township
(45.0753°N, 85.3586°W)
Time: 17:10:13
(UTC-04:00)

Amateur Radio Satellites - All Passes

Search period start: 27 July 2016 16:40
Search period end: 28 July 2016 16:40
Location: Torch Lake Township, 45.0753°N, 85.3586°W

Satellite Date Start Highest point End Downlink Frequencies (MHz)
Time Altitude Azimuth
BEESAT 27 Jul 16:40:27 16:45:09 60° 288° (WNW) 16:49:50 436.000
KKS-1 27 Jul 16:42:19 16:45:34 19° 92° (E) 16:48:47 437.445
GONETS M04 27 Jul 16:43:58 16:52:40 89° 98° (E) 17:01:28
CUSAT 1 27 Jul 16:51:15 16:52:24 12° 266° (W) 16:53:39 437.405
ITUPSAT 1 27 Jul 17:04:03 17:08:26 37° 292° (WNW) 17:12:47 437.325
HORYU 2 27 Jul 17:05:44 17:09:49 35° 68° (ENE) 17:13:56 437.375
AO-85 27 Jul 17:06:39 17:10:18 19° 326° (NW) 17:13:48 145.980
NOAA 18 27 Jul 17:07:35 17:08:21 10° 51° (NE) 17:09:07 137.9125
Cosmos 2499 27 Jul 17:10:12 17:19:08 85° 278° (W) 17:27:49 435.465 / 435.565
DANDE 27 Jul 17:16:46 17:18:19 14° 266° (W) 17:19:56 436.750
MOZHAYETS 4 27 Jul 17:18:17 17:22:45 49° 99° (E) 17:27:09
STARS 27 Jul 17:19:50 17:23:26 24° 94° (E) 17:27:00 437.465
Cubesat XI-IV 27 Jul 17:41:38 17:45:14 18° 59° (ENE) 17:48:48 437.490
BRITE-PL 27 Jul 17:44:31 17:47:35 20° 65° (ENE) 17:50:41 437.365/2234.400
AO-7 27 Jul 17:48:30 17:55:36 30° 265° (W) 18:02:46 29.400- 29.500
SWISSCUBE 27 Jul 17:59:04 18:00:52 12° 303° (WNW) 18:02:38 437.505
CUTE-I 27 Jul 18:04:03 18:08:32 28° 63° (ENE) 18:13:01 437.470
KKS-1 27 Jul 18:18:03 18:22:22 46° 290° (WNW) 18:26:38 437.445
SO-50 27 Jul 18:19:28 18:23:54 45° 241° (WSW) 18:28:11 436.795
NOAA 15 27 Jul 18:22:14 18:27:16 49° 69° (ENE) 18:32:19 137.62
LilacSat-2 27 Jul 18:32:22 18:35:54 35° 70° (ENE) 18:39:29 437.200
PHONESAT 2.4 27 Jul 18:34:21 18:36:49 22° 163° (SSE) 18:39:17 2401.200-2431.200
DOVE 4 27 Jul 18:36:02 18:38:43 16° 61° (ENE) 18:41:30 437.250
CUBESAT XI-V 27 Jul 18:38:40 18:43:03 42° 98° (E) 18:47:26 437.345
NOAA 18 27 Jul 18:42:27 18:47:52 59° 70° (ENE) 18:53:20 137.9125
HORYU 2 27 Jul 18:42:44 18:46:26 25° 265° (W) 18:50:10 437.375
GOMX 1 27 Jul 18:43:41 18:47:32 37° 69° (ENE) 18:51:35 467.674
GONETS M04 27 Jul 18:44:25 18:50:47 22° 300° (WNW) 18:57:13
RS-15 27 Jul 18:44:51 18:55:08 33° 256° (WSW) 19:05:21 29.354- 29.394
BEESAT 3 27 Jul 18:53:31 18:56:37 23° 114° (ESE) 18:59:44 437.485
STARS 27 Jul 18:55:47 18:59:52 37° 291° (WNW) 19:03:57 437.465
MOZHAYETS 4 27 Jul 18:56:16 18:59:34 20° 297° (WNW) 19:02:51
HO-68 27 Jul 18:58:40 19:03:39 21° 52° (NE) 19:08:39 435.675
BEESAT 2 27 Jul 19:01:25 19:03:43 15° 111° (ESE) 19:06:02 435.950
Cosmos 2499 27 Jul 19:07:15 19:13:32 21° 300° (WNW) 19:19:45 435.465 / 435.565
PCSat 27 Jul 19:13:29 19:17:00 18° 105° (ESE) 19:20:30 145.827
Cubesat XI-IV 27 Jul 19:19:20 19:24:42 73° 257° (WSW) 19:30:07 437.490
BRITE-PL 27 Jul 19:22:02 19:25:53 37° 263° (W) 19:29:47 437.365/2234.400
CUTE-I 27 Jul 19:43:12 19:48:21 45° 261° (W) 19:53:31 437.470
CANX-2 27 Jul 19:53:39 19:57:10 25° 67° (ENE) 20:00:41 2200.000
NOAA 15 27 Jul 20:03:10 20:07:18 23° 267° (W) 20:11:27 137.62
CUTE 1.7 + AOD 2 27 Jul 20:06:44 20:10:27 30° 68° (ENE) 20:14:11 437.475
LilacSat-2 27 Jul 20:07:30 20:10:19 19° 267° (W) 20:13:09 437.200
PHONESAT 2.4 27 Jul 20:10:04 20:12:55 34° 180° (S) 20:15:46 2401.200-2431.200
DOVE 4 27 Jul 20:11:40 20:15:54 58° 260° (W) 20:20:25 437.250
CUBESAT XI-V 27 Jul 20:16:37 20:20:11 23° 295° (WNW) 20:23:46 437.345
STRAND 1 27 Jul 20:19:00 20:23:26 29° 95° (E) 20:27:49 437.568
CINEMA 3 27 Jul 20:19:24 20:23:48 51° 71° (ENE) 20:28:27 145.822/145.860
GOMX 1 27 Jul 20:22:39 20:25:50 21° 268° (W) 20:29:07 467.674
NOAA 18 27 Jul 20:24:45 20:28:54 21° 268° (W) 20:33:06 137.9125
BEESAT 3 27 Jul 20:30:24 20:34:05 38° 312° (NW) 20:37:49 437.485
O/OREOS (USA 219) 27 Jul 20:34:59 20:37:37 16° 99° (E) 20:40:14 437.305
BEESAT 2 27 Jul 20:37:13 20:41:06 57° 308° (NW) 20:45:03 435.950
HO-68 27 Jul 20:43:13 20:50:25 87° 72° (ENE) 20:57:41 435.675
SEEDS 27 Jul 20:44:30 20:48:37 53° 73° (ENE) 20:52:45 437.485
YUBILEINY 27 Jul 20:47:35 20:55:38 37° 68° (ENE) 21:03:36 435.215
PCSat 27 Jul 20:54:21 20:59:46 74° 303° (WNW) 21:05:13 145.827
COMPASS 1 27 Jul 20:55:24 20:59:26 49° 72° (ENE) 21:03:28 437.405
FUNcube-1 27 Jul 20:59:22 21:02:37 20° 63° (ENE) 21:05:54 145.935
UWE-3 27 Jul 21:00:17 21:04:18 31° 67° (ENE) 21:08:23 435.000/436.395/437.385
ZACube-1 27 Jul 21:00:24 21:03:49 21° 64° (ENE) 21:07:16 437.345
AIST 2 27 Jul 21:06:06 21:08:35 16° 111° (ESE) 21:11:06 435.215
M-CUBED/EXP-1 PRIME 27 Jul 21:14:29 21:16:48 15° 55° (NE) 21:19:15 437.505
PRISM 27 Jul 21:21:16 21:23:30 14° 91° (E) 21:25:45 437.425
CUBEBUG 2 27 Jul 21:22:50 21:27:25 72° 74° (ENE) 21:32:09 437.445
AAUSAT CUBESAT 2 27 Jul 21:23:03 21:27:12 79° 75° (ENE) 21:31:22 437.432
CANX-2 27 Jul 21:29:03 21:32:54 32° 264° (W) 21:36:45 2200.000
AUBIESAT-1 27 Jul 21:39:12 21:42:16 22° 58° (ENE) 21:45:30 437.475
Oscar 11 27 Jul 21:40:00 21:44:12 50° 72° (ENE) 21:48:25 145.826/435.025
DELFI C3 27 Jul 21:42:12 21:45:19 22° 67° (ENE) 21:48:27 145.870
CUTE 1.7 + AOD 2 27 Jul 21:42:38 21:46:16 27° 265° (W) 21:49:55 437.475
PHONESAT 2.4 27 Jul 21:46:32 21:49:02 22° 196° (SSW) 21:51:31 2401.200-2431.200
STRAND 1 27 Jul 21:57:58 22:02:41 38° 293° (WNW) 22:07:22 437.568
CINEMA 3 27 Jul 21:58:09 22:01:18 18° 270° (W) 22:04:33 145.822/145.860
HUMSAT D 27 Jul 22:09:52 22:13:20 24° 66° (ENE) 22:16:48 437.325/437.525
Cosmos 2504 27 Jul 22:10:16 22:17:53 39° 69° (ENE) 22:24:56 435.465 / 435.565
O/OREOS (USA 219) 27 Jul 22:12:07 22:16:31 57° 298° (WNW) 22:20:57 437.305
ISS 27 Jul 22:12:46 22:15:49 37° 142° (SE) 22:18:52 145.825
Cosmos 2491 27 Jul 22:12:53 22:21:13 53° 90° (E) 22:29:35 435.465 / 435.565
AO-85 27 Jul 22:14:17 22:18:02 24° 39° (NE) 22:21:31 145.980
BEESAT 2 27 Jul 22:18:38 22:19:49 11° 329° (NNW) 22:21:00 435.950
SEEDS 27 Jul 22:22:13 22:24:39 15° 270° (W) 22:27:05 437.485
COMPASS 1 27 Jul 22:32:42 22:35:16 16° 269° (W) 22:37:50 437.405
FUNcube-1 27 Jul 22:34:05 22:38:29 50° 261° (W) 22:42:58 145.935
HO-68 27 Jul 22:34:18 22:39:01 18° 271° (W) 22:43:48 435.675
ZACube-1 27 Jul 22:35:25 22:39:47 46° 262° (W) 22:44:14 437.345
UWE-3 27 Jul 22:36:38 22:40:42 31° 265° (W) 22:44:52 435.000/436.395/437.385
PCSat 27 Jul 22:40:37 22:44:08 17° 325° (NW) 22:47:40 145.827
AIST 2 27 Jul 22:42:34 22:46:37 58° 308° (NW) 22:50:44 435.215
YUBILEINY 27 Jul 22:44:15 22:52:48 55° 270° (W) 23:01:16 435.215
M-CUBED/EXP-1 PRIME 27 Jul 22:47:04 22:50:48 59° 254° (WSW) 22:54:56 437.505
PRISM 27 Jul 22:55:08 22:59:08 53° 288° (WNW) 23:03:08 437.425
ESTCUBE 1 27 Jul 22:57:14 22:59:56 16° 61° (ENE) 23:02:39 437.505/2401.250
CUBEBUG 2 27 Jul 23:02:19 23:04:34 13° 272° (W) 23:06:52 437.445
CUBEBUG 1 27 Jul 23:11:12 23:13:29 14° 61° (ENE) 23:15:46 437.445
VELOX 1 27 Jul 23:11:56 23:13:59 13° 59° (ENE) 23:16:04 145.980
AUBIESAT-1 27 Jul 23:12:54 23:16:29 37° 258° (WSW) 23:20:22 437.475
ANTELSAT 27 Jul 23:15:23 23:19:10 24° 93° (E) 23:22:50 437.575/2403.000
DELFI C3 27 Jul 23:16:28 23:20:02 31° 264° (W) 23:23:36 145.870
Oscar 11 27 Jul 23:17:48 23:20:37 17° 269° (W) 23:23:27 145.826/435.025
HUMSAT D 27 Jul 23:44:50 23:48:47 35° 263° (W) 23:52:45 437.325/437.525
ISS 27 Jul 23:49:08 23:52:14 41° 340° (NNW) 23:55:22 145.825
DX 1 27 Jul 23:52:29 23:55:58 24° 65° (ENE) 23:59:28 434.975-435.025
AO-85 27 Jul 23:54:30 23:58:46 49° 241° (WSW) 00:02:41 145.980
AISAT 27 Jul 23:54:33 23:58:31 35° 68° (ENE) 00:02:31 437.250
TIGRISAT 27 Jul 23:56:19 00:00:56 58° 100° (E) 00:05:25 435.000
QB50P1 28 Jul 00:03:36 00:05:11 12° 89° (E) 00:06:45 145.935-145.965
Cosmos 2504 28 Jul 00:03:42 00:11:25 47° 272° (W) 00:18:35 435.465 / 435.565
UKube-1 28 Jul 00:04:47 00:08:20 25° 66° (ENE) 00:11:54 .
POPSAT HIP 1 28 Jul 00:09:36 00:11:47 14° 90° (E) 00:13:57 437.405
Cosmos 2491 28 Jul 00:10:27 00:18:21 37° 291° (WNW) 00:26:20 435.465 / 435.565
UNISAT 6 28 Jul 00:12:54 00:17:35 90° 316° (NW) 00:22:09 437.425
AIST 1 28 Jul 00:20:52 00:23:54 18° 69° (ENE) 00:26:55
AIST 2 28 Jul 00:24:27 00:26:00 12° 329° (NNW) 00:27:33 435.215
50 SAT 28 Jul 00:27:25 00:31:04 75° 75° (ENE) 00:34:43 437.505
QB50P2 28 Jul 00:29:40 00:33:10 24° 94° (E) 00:36:37 145.880/145.840
ESTCUBE 1 28 Jul 00:31:49 00:36:16 62° 259° (W) 00:40:43 437.505/2401.250
POLYITAN 1 28 Jul 00:32:17 00:35:49 24° 94° (E) 00:39:19 437.675
SPROUT 28 Jul 00:36:11 00:40:12 41° 70° (ENE) 00:44:15 437.525
CUBEBUG 1 28 Jul 00:44:58 00:49:14 66° 258° (WSW) 00:53:34 437.445
VELOX 1 28 Jul 00:45:30 00:49:52 75° 258° (WSW) 00:54:17 145.980
ANTELSAT 28 Jul 00:51:40 00:55:59 38° 291° (WNW) 01:00:11 437.575/2403.000
GONETS M04 28 Jul 00:58:34 01:00:51 11° 48° (NE) 01:03:09
NANOSAT C BR1 28 Jul 01:14:16 01:18:32 63° 101° (E) 01:22:45 145.865
DUCHIFAT 1 28 Jul 01:18:11 01:22:27 66° 101° (ESE) 01:26:41 145.980
ISS 28 Jul 01:26:27 01:29:13 24° 360° (N) 01:31:59 145.825
DX 1 28 Jul 01:28:01 01:31:59 35° 262° (W) 01:36:00 434.975-435.025
TISAT 1 28 Jul 01:29:04 01:32:57 38° 70° (ENE) 01:36:53 437.305
BUGSAT 1 28 Jul 01:29:50 01:33:51 39° 98° (E) 01:37:50 437.445
AISAT 28 Jul 01:31:29 01:35:03 24° 265° (W) 01:38:40 437.250
TIGRISAT 28 Jul 01:34:05 01:37:08 18° 299° (WNW) 01:40:10 435.000
QB50P1 28 Jul 01:37:09 01:41:26 70° 286° (WNW) 01:45:41 145.935-145.965
JAS-2 28 Jul 01:37:39 01:42:32 36° 98° (E) 01:47:47 435.910
UKube-1 28 Jul 01:40:23 01:44:16 33° 263° (W) 01:48:09 .
POPSAT HIP 1 28 Jul 01:43:42 01:47:58 60° 287° (WNW) 01:52:11 437.405
SWISSCUBE 28 Jul 01:51:28 01:54:42 18° 61° (ENE) 01:57:55 437.505
UNISAT 6 28 Jul 01:51:48 01:53:33 12° 302° (WNW) 01:55:17 437.425
AIST 1 28 Jul 01:57:35 02:01:43 44° 267° (W) 02:05:52
QB50P2 28 Jul 02:05:08 02:09:02 34° 291° (WNW) 02:12:54 145.880/145.840
POLYITAN 1 28 Jul 02:07:47 02:11:41 33° 291° (WNW) 02:15:32 437.675
BEESAT 28 Jul 02:11:57 02:15:50 25° 64° (ENE) 02:19:43 436.000
SPROUT 28 Jul 02:13:12 02:16:20 20° 268° (W) 02:19:28 437.525
ITUPSAT 1 28 Jul 02:34:54 02:39:21 39° 68° (ENE) 02:43:48 437.325
Gurwin Techsat 1B 28 Jul 02:44:42 02:48:30 20° 91° (E) 02:52:17 435.225
NANOSAT C BR1 28 Jul 02:51:26 02:53:46 14° 299° (WNW) 02:56:06 145.865
GONETS M04 28 Jul 02:51:45 03:00:18 51° 73° (ENE) 03:08:49
DUCHIFAT 1 28 Jul 02:55:24 02:57:38 14° 299° (WNW) 02:59:51 145.980
Oscar 19 28 Jul 02:56:38 03:01:42 52° 100° (E) 03:06:45 437.125/150
Cosmos 2499 28 Jul 03:00:18 03:07:38 39° 70° (ENE) 03:14:25 435.465 / 435.565
ISS 28 Jul 03:03:05 03:06:12 41° 20° (NNE) 03:09:19 145.825
TISAT 1 28 Jul 03:05:33 03:08:44 21° 267° (W) 03:11:57 437.305
BUGSAT 1 28 Jul 03:05:44 03:08:59 21° 295° (WNW) 03:12:13 437.445
BEESAT 3 28 Jul 03:08:10 03:11:40 29° 45° (NE) 03:15:09 437.485
BEESAT 2 28 Jul 03:16:05 03:19:14 22° 41° (NE) 03:22:23 435.950
JAS-2 28 Jul 03:22:59 03:27:37 32° 294° (WNW) 03:32:32 435.910
SWISSCUBE 28 Jul 03:27:18 03:32:02 60° 259° (WSW) 03:36:48 437.505
KKS-1 28 Jul 03:42:14 03:45:45 23° 64° (ENE) 03:49:18 437.445
BEESAT 28 Jul 03:48:53 03:53:24 41° 261° (W) 03:57:57 436.000
AO-7 28 Jul 03:55:06 04:00:18 18° 88° (E) 04:05:27 29.400- 29.500
PCSat 28 Jul 03:57:23 04:01:58 27° 43° (NE) 04:06:31 145.827
ITUPSAT 1 28 Jul 04:13:19 04:17:17 26° 266° (W) 04:21:17 437.325
CUSAT 1 28 Jul 04:13:42 04:17:11 30° 98° (E) 04:20:02 437.405
STARS 28 Jul 04:18:17 04:22:00 27° 66° (ENE) 04:25:44 437.465
MOZHAYETS 4 28 Jul 04:21:44 04:26:16 58° 73° (ENE) 04:30:50
Gurwin Techsat 1B 28 Jul 04:23:37 04:28:52 60° 289° (WNW) 04:34:04 435.225
ITAMSAT 1 28 Jul 04:32:49 04:37:59 60° 101° (ESE) 04:43:05 435.822/435.867
Oscar 19 28 Jul 04:36:41 04:40:41 23° 298° (WNW) 04:44:41 437.125/150
ISS 28 Jul 04:39:35 04:42:38 37° 218° (SW) 04:45:40 145.825
DANDE 28 Jul 04:43:28 04:48:06 30° 96° (E) 04:51:45 436.750
BEESAT 3 28 Jul 04:45:48 04:49:21 32° 243° (WSW) 04:52:53 437.485
GONETS M04 28 Jul 04:48:58 04:56:54 40° 275° (W) 05:04:52
BEESAT 2 28 Jul 04:53:26 04:57:20 49° 240° (WSW) 05:01:11 435.950
Cosmos 2499 28 Jul 04:53:30 05:00:49 44° 272° (W) 05:07:38 435.465 / 435.565
KKS-1 28 Jul 05:17:58 05:22:07 38° 262° (W) 05:26:19 437.445
AIST 2 28 Jul 05:24:02 05:27:27 24° 42° (NE) 05:30:51 435.215
PCSat 28 Jul 05:40:24 05:45:45 60° 243° (WSW) 05:51:04 145.827
CUBESAT XI-V 28 Jul 05:43:40 05:48:08 51° 71° (ENE) 05:52:36 437.345
AO-7 28 Jul 05:45:53 05:54:19 82° 108° (ESE) 06:02:39 29.400- 29.500
STARS 28 Jul 05:54:21 05:58:16 32° 264° (W) 06:02:14 437.465
CUSAT 1 28 Jul 05:57:09 05:59:08 14° 287° (WNW) 06:00:55 437.405
MOZHAYETS 4 28 Jul 06:00:58 06:03:49 16° 270° (W) 06:06:40
ITAMSAT 1 28 Jul 06:13:14 06:17:01 21° 299° (WNW) 06:20:46 435.822/435.867
DANDE 28 Jul 06:26:28 06:30:48 27° 285° (WNW) 06:34:17 436.750
HORYU 2 28 Jul 06:30:38 06:35:01 52° 100° (E) 06:39:22 437.375
NOAA 15 28 Jul 06:36:34 06:39:36 15° 89° (E) 06:42:38 137.62
O/OREOS (USA 219) 28 Jul 06:40:49 06:45:09 43° 60° (ENE) 06:49:30 437.305
GOMX 1 28 Jul 06:44:18 06:46:12 12° 87° (E) 06:48:07 467.674
RS-15 28 Jul 06:57:32 07:07:51 42° 108° (ESE) 07:18:40 29.354- 29.394
AIST 2 28 Jul 07:02:08 07:06:09 47° 241° (WSW) 07:10:09 435.215
NOAA 18 28 Jul 07:03:18 07:07:23 21° 92° (E) 07:11:26 137.9125
CUBESAT XI-V 28 Jul 07:22:41 07:25:49 18° 269° (W) 07:28:57 437.345
BRITE-PL 28 Jul 07:22:53 07:27:38 54° 100° (E) 07:32:43 437.365/2234.400
Cubesat XI-IV 28 Jul 07:34:43 07:39:44 38° 97° (E) 07:44:40 437.490
STRAND 1 28 Jul 07:36:33 07:41:31 51° 70° (ENE) 07:46:31 437.568
LilacSat-2 28 Jul 07:37:44 07:41:24 39° 98° (E) 07:45:00 437.200
AO-7 28 Jul 07:39:36 07:46:14 28° 309° (NW) 07:52:51 29.400- 29.500
CUTE-I 28 Jul 07:57:53 08:03:12 62° 102° (ESE) 08:08:27 437.470
DOVE 4 28 Jul 08:07:47 08:12:32 35° 96° (E) 08:17:21 437.250
HORYU 2 28 Jul 08:08:07 08:11:11 18° 298° (WNW) 08:14:15 437.375
HO-68 28 Jul 08:11:02 08:14:41 14° 86° (E) 08:18:19 435.675
PRISM 28 Jul 08:13:00 08:15:16 15° 62° (ENE) 08:17:33 437.425
CINEMA 3 28 Jul 08:13:50 08:15:59 13° 87° (E) 08:18:07 145.822/145.860
NOAA 15 28 Jul 08:14:40 08:19:57 74° 287° (WNW) 08:25:12 137.62
GOMX 1 28 Jul 08:19:46 08:24:51 88° 99° (E) 08:30:13 467.674
Cosmos 2491 28 Jul 08:20:42 08:28:08 30° 65° (ENE) 08:35:33 435.465 / 435.565
O/OREOS (USA 219) 28 Jul 08:20:51 08:24:16 21° 258° (WSW) 08:27:42 437.305
SO-50 28 Jul 08:34:59 08:39:27 37° 117° (ESE) 08:43:54 436.795
NOAA 18 28 Jul 08:42:58 08:48:27 61° 290° (WNW) 08:53:52 137.9125
BRITE-PL 28 Jul 09:02:16 09:05:49 21° 295° (WNW) 09:09:33 437.365/2234.400
AAUSAT CUBESAT 2 28 Jul 09:06:01 09:06:48 10° 88° (E) 09:07:34 437.432
RS-15 28 Jul 09:08:09 09:19:42 68° 312° (NW) 09:31:54 29.354- 29.394
CANX-2 28 Jul 09:11:42 09:15:36 36° 97° (E) 09:19:28 2200.000
LilacSat-2 28 Jul 09:12:47 09:15:25 18° 295° (WNW) 09:18:02 437.200
CUBEBUG 2 28 Jul 09:13:22 09:15:53 14° 88° (E) 09:18:22 437.445
Cubesat XI-IV 28 Jul 09:15:00 09:19:41 31° 295° (WNW) 09:24:20 437.490
STRAND 1 28 Jul 09:17:02 09:20:59 22° 267° (W) 09:24:56 437.568
CUTE 1.7 + AOD 2 28 Jul 09:24:48 09:28:51 43° 98° (E) 09:32:51 437.475
CUTE-I 28 Jul 09:38:53 09:42:47 21° 300° (WNW) 09:46:39 437.470
UNISAT 6 28 Jul 09:39:27 09:41:41 13° 59° (ENE) 09:43:55 437.425
DOVE 4 28 Jul 09:45:34 09:50:08 33° 292° (WNW) 09:54:49 437.250
PRISM 28 Jul 09:46:09 09:50:09 56° 258° (WSW) 09:54:10 437.425
CINEMA 3 28 Jul 09:48:41 09:53:45 85° 282° (WNW) 09:58:43 145.822/145.860
YUBILEINY 28 Jul 09:51:21 09:59:13 39° 85° (E) 10:07:07 435.215
HO-68 28 Jul 09:56:17 10:03:32 78° 105° (ESE) 10:10:43 435.675
NOAA 15 28 Jul 09:56:54 09:58:49 12° 306° (NW) 10:00:46 137.62
GOMX 1 28 Jul 09:59:39 10:02:19 14° 300° (WNW) 10:05:02 467.674
SEEDS 28 Jul 10:01:49 10:06:01 80° 103° (ESE) 10:10:10 437.485
COMPASS 1 28 Jul 10:11:27 10:15:36 72° 102° (ESE) 10:19:43 437.405
SO-50 28 Jul 10:15:27 10:19:57 36° 315° (NW) 10:24:25 436.795
ANTELSAT 28 Jul 10:15:48 10:19:45 28° 66° (ENE) 10:23:45 437.575/2403.000
Cosmos 2491 28 Jul 10:17:02 10:25:42 68° 267° (W) 10:34:22 435.465 / 435.565
FUNcube-1 28 Jul 10:20:30 10:24:21 27° 94° (E) 10:28:05 145.935
ZACube-1 28 Jul 10:22:00 10:26:00 30° 95° (E) 10:29:53 437.345
UWE-3 28 Jul 10:23:46 10:28:16 48° 99° (E) 10:32:36 435.000/436.395/437.385
NOAA 18 28 Jul 10:26:52 10:28:00 11° 309° (NW) 10:29:08 137.9125
AAUSAT CUBESAT 2 28 Jul 10:38:40 10:42:46 72° 285° (WNW) 10:46:52 437.432
CANX-2 28 Jul 10:47:59 10:51:16 22° 294° (WNW) 10:54:31 2200.000
CUBEBUG 2 28 Jul 10:48:17 10:53:00 68° 286° (WNW) 10:57:35 437.445
Cosmos 2504 28 Jul 10:50:24 10:57:55 32° 83° (E) 11:05:22 435.465 / 435.565
AUBIESAT-1 28 Jul 10:50:34 10:52:55 14° 94° (E) 10:55:16 437.475
DELFI C3 28 Jul 10:51:53 10:55:14 26° 95° (E) 10:58:35 145.870
TIGRISAT 28 Jul 10:56:19 11:00:55 64° 73° (ENE) 11:05:36 435.000
QB50P1 28 Jul 10:58:15 11:00:07 13° 60° (ENE) 11:02:01 145.935-145.965
Oscar 11 28 Jul 11:01:01 11:05:22 79° 103° (ESE) 11:09:40 145.826/435.025
CUTE 1.7 + AOD 2 28 Jul 11:01:25 11:04:23 19° 296° (WNW) 11:07:21 437.475
POPSAT HIP 1 28 Jul 11:04:20 11:06:38 14° 61° (ENE) 11:08:58 437.405
UNISAT 6 28 Jul 11:13:03 11:17:42 83° 255° (WSW) 11:22:27 437.425
QB50P2 28 Jul 11:24:16 11:27:41 24° 66° (ENE) 11:31:07 145.880/145.840
RS-15 28 Jul 11:24:35 11:35:00 33° 343° (NNW) 11:45:47 29.354- 29.394
HUMSAT D 28 Jul 11:26:10 11:29:56 31° 96° (E) 11:33:37 437.325/437.525
POLYITAN 1 28 Jul 11:26:51 11:30:19 24° 66° (ENE) 11:33:48 437.675
CINEMA 3 28 Jul 11:27:52 11:30:05 13° 302° (WNW) 11:32:17 145.822/145.860
SEEDS 28 Jul 11:39:50 11:41:05 11° 300° (WNW) 11:42:20 437.485
HO-68 28 Jul 11:45:00 11:50:32 25° 305° (NW) 11:56:04 435.675
YUBILEINY 28 Jul 11:47:14 11:55:44 52° 286° (WNW) 12:04:21 435.215
COMPASS 1 28 Jul 11:48:57 11:50:36 12° 299° (WNW) 11:52:15 437.405
ANTELSAT 28 Jul 11:52:04 11:56:19 35° 264° (W) 12:00:39 437.575/2403.000
JAS-2 28 Jul 11:53:37 11:57:46 21° 62° (ENE) 12:01:41 435.910
FUNcube-1 28 Jul 11:56:37 12:00:35 31° 292° (WNW) 12:04:29 145.935
M-CUBED/EXP-1 PRIME 28 Jul 11:58:04 12:02:48 76° 108° (ESE) 12:07:29 437.505
ZACube-1 28 Jul 11:58:19 12:02:13 29° 293° (WNW) 12:06:00 437.345
SO-50 28 Jul 12:00:40 12:01:49 11° 337° (NNW) 12:03:00 436.795
UWE-3 28 Jul 12:00:59 12:04:22 20° 297° (WNW) 12:07:40 435.000/436.395/437.385
NANOSAT C BR1 28 Jul 12:07:58 12:12:08 59° 73° (ENE) 12:16:21 145.865
DUCHIFAT 1 28 Jul 12:11:37 12:15:47 61° 73° (ENE) 12:20:00 145.980
Cosmos 2491 28 Jul 12:17:02 12:20:46 13° 288° (WNW) 12:24:31 435.465 / 435.565
BUGSAT 1 28 Jul 12:21:24 12:25:07 35° 69° (ENE) 12:28:55 437.445
ESTCUBE 1 28 Jul 12:22:44 12:26:20 23° 94° (E) 12:29:55 437.505/2401.250
AUBIESAT-1 28 Jul 12:23:10 12:27:50 75° 290° (WNW) 12:32:26 437.475
DELFI C3 28 Jul 12:26:44 12:30:02 26° 292° (WNW) 12:33:19 145.870
QB50P1 28 Jul 12:31:05 12:35:19 74° 257° (WSW) 12:39:37 145.935-145.965
CUBEBUG 1 28 Jul 12:32:09 12:35:23 20° 93° (E) 12:38:36 437.445
VELOX 1 28 Jul 12:34:26 12:37:29 18° 92° (E) 12:40:31 145.980
TIGRISAT 28 Jul 12:35:23 12:38:03 15° 271° (W) 12:40:44 435.000
POPSAT HIP 1 28 Jul 12:37:42 12:41:55 64° 259° (W) 12:46:11 437.405
Oscar 11 28 Jul 12:39:10 12:40:52 12° 300° (WNW) 12:42:34 145.826/435.025
Oscar 19 28 Jul 12:39:23 12:41:58 14° 57° (ENE) 12:44:35 437.125/150
Cosmos 2504 28 Jul 12:41:58 12:50:46 64° 283° (WNW) 12:59:30 435.465 / 435.565
QB50P2 28 Jul 12:59:26 13:03:19 34° 263° (W) 13:07:15 145.880/145.840
HUMSAT D 28 Jul 13:01:59 13:05:25 25° 294° (WNW) 13:08:49 437.325/437.525
POLYITAN 1 28 Jul 13:02:04 13:05:57 34° 263° (W) 13:09:54 437.675
DX 1 28 Jul 13:13:52 13:17:49 32° 97° (E) 13:21:44 434.975-435.025
AISAT 28 Jul 13:18:28 13:22:51 52° 100° (E) 13:27:12 437.250
UKube-1 28 Jul 13:25:03 13:29:00 33° 97° (E) 13:32:56 .
50 SAT 28 Jul 13:27:35 13:31:11 70° 102° (ESE) 13:34:45 437.505
M-CUBED/EXP-1 PRIME 28 Jul 13:33:50 13:36:44 16° 305° (NW) 13:39:39 437.505
JAS-2 28 Jul 13:36:36 13:42:31 62° 258° (WSW) 13:47:54 435.910
RS-15 28 Jul 13:41:32 13:52:15 33° 18° (NNE) 14:03:04 29.354- 29.394
NANOSAT C BR1 28 Jul 13:46:07 13:48:15 14° 270° (W) 13:50:25 145.865
DUCHIFAT 1 28 Jul 13:49:51 13:51:53 13° 270° (W) 13:53:56 145.980
YUBILEINY 28 Jul 13:52:27 13:55:08 11° 312° (NW) 13:57:52 435.215
SPROUT 28 Jul 13:55:35 13:59:53 61° 101° (E) 14:04:09 437.525
BUGSAT 1 28 Jul 13:57:25 14:00:36 22° 267° (W) 14:03:50 437.445
ESTCUBE 1 28 Jul 13:59:06 14:03:15 37° 291° (WNW) 14:07:23 437.505/2401.250
AUBIESAT-1 28 Jul 13:59:52 14:01:29 12° 308° (NW) 14:03:05 437.475
Gurwin Techsat 1B 28 Jul 14:07:22 14:12:14 38° 67° (ENE) 14:17:07 435.225
CUBEBUG 1 28 Jul 14:07:41 14:11:52 43° 289° (WNW) 14:16:02 437.445
AO-85 28 Jul 14:09:26 14:14:20 37° 116° (ESE) 14:19:03 145.980
VELOX 1 28 Jul 14:09:55 14:14:13 49° 289° (WNW) 14:18:30 145.980
Oscar 19 28 Jul 14:15:26 14:20:33 89° 265° (W) 14:25:44 437.125/150
ITAMSAT 1 28 Jul 14:15:47 14:19:05 17° 58° (ENE) 14:22:24 435.822/435.867
AIST 1 28 Jul 14:28:26 14:32:40 85° 275° (W) 14:36:58
Cosmos 2504 28 Jul 14:41:21 14:46:07 15° 306° (NW) 14:50:52 435.465 / 435.565
CUSAT 1 28 Jul 14:43:14 14:45:27 19° 75° (ENE) 14:48:01 437.405
TISAT 1 28 Jul 14:46:07 14:50:17 51° 100° (E) 14:54:25 437.305
DX 1 28 Jul 14:50:14 14:53:54 27° 294° (WNW) 14:57:34 434.975-435.025
AO-7 28 Jul 14:55:46 15:02:57 33° 55° (NE) 15:10:08 29.400- 29.500
AISAT 28 Jul 14:55:54 14:58:56 18° 298° (WNW) 15:01:58 437.250
UKube-1 28 Jul 15:01:21 15:04:55 25° 294° (WNW) 15:08:28 .
DANDE 28 Jul 15:20:10 15:21:11 11° 71° (ENE) 15:22:11 436.750
SO-50 28 Jul 15:25:02 15:27:27 14° 28° (NNE) 15:29:50 436.795
SWISSCUBE 28 Jul 15:25:43 15:29:52 29° 96° (E) 15:33:59 437.505
SPROUT 28 Jul 15:32:52 15:35:21 15° 299° (WNW) 15:37:50 437.525
Cosmos 2499 28 Jul 15:38:29 15:46:01 33° 83° (E) 15:53:22 435.465 / 435.565
BEESAT 28 Jul 15:46:41 15:51:13 42° 99° (E) 15:55:42 436.000
Gurwin Techsat 1B 28 Jul 15:47:32 15:52:13 31° 265° (W) 15:56:57 435.225
AO-85 28 Jul 15:49:48 15:54:49 40° 314° (NW) 15:59:35 145.980
ITAMSAT 1 28 Jul 15:52:44 15:57:58 75° 257° (WSW) 16:03:13 435.822/435.867
GONETS M04 28 Jul 15:55:12 16:03:31 53° 90° (E) 16:11:54
RS-15 28 Jul 15:55:14 16:07:35 68° 48° (NE) 16:19:49 29.354- 29.394
Oscar 19 28 Jul 15:58:55 16:00:36 11° 273° (W) 16:02:18 437.125/150
ITUPSAT 1 28 Jul 16:10:37 16:15:24 70° 103° (ESE) 16:20:08 437.325
MOZHAYETS 4 28 Jul 16:16:55 16:18:31 12° 88° (E) 16:20:07
TISAT 1 28 Jul 16:22:46 16:25:33 17° 297° (WNW) 16:28:20 437.305
CUSAT 1 28 Jul 16:25:05 16:27:22 19° 264° (W) 16:30:02 437.405
